TimeCEST,TemperatureF,Dew PointF,Humidity,Sea Level PressureIn,VisibilityMPH,Wind Direction,Wind SpeedMPH,Gust SpeedMPH,PrecipitationIn,Events,Conditions,WindDirDegrees,DateUTC
12:00 AM,57.2,50.0,77,30.04,-9999.0,NE,3.5,-,N/A,,Clear,50,2012-10-05 22:00:00
12:30 AM,57.2,50.0,77,30.04,-9999.0,NE,2.3,-,N/A,,Clear,50,2012-10-05 22:30:00
1:00 AM,55.4,50.0,82,30.04,-9999.0,ENE,3.5,-,N/A,,Clear,60,2012-10-05 23:00:00
1:30 AM,55.4,50.0,82,30.04,-9999.0,NE,3.5,-,N/A,,Clear,40,2012-10-05 23:30:00
2:00 AM,55,49,75,30.05,19,NE,4.5,,,,,50,2012-10-06 00:00:00
2:00 AM,53.6,48.2,82,30.04,-9999.0,NNE,2.3,-,N/A,,Clear,20,2012-10-06 00:00:00
2:30 AM,51.8,48.2,88,30.04,-9999.0,NE,4.6,-,N/A,,Clear,40,2012-10-06 00:30:00
3:00 AM,50.0,46.4,87,30.04,-9999.0,NE,3.5,-,N/A,,Clear,40,2012-10-06 01:00:00
3:30 AM,50.0,46.4,87,30.04,-9999.0,NE,4.6,-,N/A,,Clear,40,2012-10-06 01:30:00
4:00 AM,51.8,48.2,88,30.04,-9999.0,NE,3.5,-,N/A,,Clear,40,2012-10-06 02:00:00
4:30 AM,48.2,46.4,93,30.04,-9999.0,NE,2.3,-,N/A,,Clear,50,2012-10-06 02:30:00
5:00 AM,51.8,48.2,88,30.04,-9999.0,NE,4.6,-,N/A,,Clear,40,2012-10-06 03:00:00
5:30 AM,51.8,48.2,88,30.04,-9999.0,NNE,4.6,-,N/A,,Clear,30,2012-10-06 03:30:00
6:00 AM,51.8,48.2,88,30.04,-9999.0,North,5.8,-,N/A,,Clear,10,2012-10-06 04:00:00
6:30 AM,46.4,42.8,87,30.04,-9999.0,East,3.5,-,N/A,,Clear,80,2012-10-06 04:30:00
7:00 AM,50.0,48.2,94,30.04,-9999.0,ENE,3.5,-,N/A,,Clear,70,2012-10-06 05:00:00
7:30 AM,50.0,48.2,94,30.04,6.2,East,2.3,-,N/A,Fog,Shallow Fog,80,2012-10-06 05:30:00
8:00 AM,52,48,83,30.06,9,NNE,4.5,,,,Clear,30,2012-10-06 06:00:00
8:00 AM,51.8,48.2,88,30.04,-9999.0,NE,2.3,-,N/A,,Clear,50,2012-10-06 06:00:00
8:30 AM,53.6,48.2,82,30.04,-9999.0,NE,3.5,-,N/A,,Clear,40,2012-10-06 06:30:00
9:00 AM,55.4,48.2,77,30.04,-9999.0,Variable,2.3,-,N/A,,Clear,0,2012-10-06 07:00:00
9:30 AM,57.2,48.2,72,30.04,-9999.0,Variable,1.2,-,N/A,,Clear,0,2012-10-06 07:30:00
10:00 AM,59.0,50.0,72,30.04,-9999.0,Variable,2.3,-,N/A,,Clear,0,2012-10-06 08:00:00
10:30 AM,59.0,50.0,72,30.04,-9999.0,SSW,3.5,-,N/A,,Clear,200,2012-10-06 08:30:00
11:00 AM,60.8,50.0,68,30.04,6.2,South,6.9,-,N/A,,Partly Cloudy,190,2012-10-06 09:00:00
11:30 AM,64.4,53.6,68,30.01,6.2,South,5.8,-,N/A,,Partly Cloudy,170,2012-10-06 09:30:00
12:00 PM,68.0,51.8,56,30.04,6.2,SSW,10.4,-,N/A,,Partly Cloudy,210,2012-10-06 10:00:00
12:30 PM,69.8,51.8,53,30.01,6.2,SSW,12.7,-,N/A,,Partly Cloudy,210,2012-10-06 10:30:00
1:00 PM,73.4,51.8,47,30.01,6.2,SW,12.7,-,N/A,,Partly Cloudy,220,2012-10-06 11:00:00
1:30 PM,75.2,48.2,38,29.98,6.2,SSW,13.8,-,N/A,,Partly Cloudy,210,2012-10-06 11:30:00
2:00 PM,75,48,27,29.95,19,South,15.7,,,,Scattered Clouds,190,2012-10-06 12:00:00
2:00 PM,75.2,48.2,38,29.98,-9999.0,South,17.3,-,N/A,,Clear,190,2012-10-06 12:00:00
2:30 PM,77.0,48.2,36,29.95,-9999.0,SSW,16.1,-,N/A,,Clear,200,2012-10-06 12:30:00
3:00 PM,77.0,46.4,34,29.95,-9999.0,SSW,16.1,-,N/A,,Clear,200,2012-10-06 13:00:00
3:30 PM,78.8,46.4,32,29.92,-9999.0,SSW,17.3,-,N/A,,Clear,210,2012-10-06 13:30:00
4:00 PM,78.8,46.4,32,29.92,-9999.0,SSW,17.3,-,N/A,,Clear,210,2012-10-06 14:00:00
4:30 PM,77.0,44.6,32,29.89,-9999.0,SSW,15.0,-,N/A,,Clear,200,2012-10-06 14:30:00
5:00 PM,75.2,42.8,31,29.92,-9999.0,SSW,11.5,-,N/A,,Clear,210,2012-10-06 15:00:00
5:30 PM,75.2,44.6,34,29.89,-9999.0,WSW,12.7,-,N/A,,Clear,240,2012-10-06 15:30:00
6:00 PM,73.4,44.6,36,29.89,-9999.0,SW,15.0,-,N/A,,Clear,230,2012-10-06 16:00:00
6:30 PM,71.6,44.6,38,29.89,-9999.0,SW,11.5,-,N/A,,Clear,230,2012-10-06 16:30:00
7:00 PM,68.0,44.6,43,29.89,-9999.0,SSW,8.1,-,N/A,,Clear,200,2012-10-06 17:00:00
7:30 PM,66.2,46.4,49,29.89,-9999.0,South,8.1,-,N/A,,Clear,190,2012-10-06 17:30:00
8:00 PM,66,49,43,29.89,16,South,11.2,,,,Scattered Clouds,190,2012-10-06 18:00:00
8:00 PM,66.2,48.2,52,29.89,-9999.0,South,9.2,-,N/A,,Clear,190,2012-10-06 18:00:00
8:30 PM,66.2,48.2,52,29.89,-9999.0,SW,5.8,-,N/A,,Clear,220,2012-10-06 18:30:00
9:00 PM,64.4,48.2,56,29.89,-9999.0,SW,11.5,-,N/A,,Clear,220,2012-10-06 19:00:00
9:30 PM,64.4,46.4,52,29.92,-9999.0,SSW,6.9,-,N/A,,Clear,210,2012-10-06 19:30:00
10:00 PM,68.0,46.4,46,29.92,-9999.0,WSW,15.0,-,N/A,,Clear,240,2012-10-06 20:00:00
10:30 PM,66.2,46.4,49,29.92,-9999.0,West,11.5,-,N/A,,Clear,260,2012-10-06 20:30:00
11:00 PM,68.0,46.4,46,29.92,-9999.0,WSW,10.4,-,N/A,,Clear,250,2012-10-06 21:00:00
11:30 PM,68.0,44.6,43,29.92,-9999.0,West,11.5,-,N/A,,Clear,270,2012-10-06 21:30:00